Flag for Germany Weather past 2 weeks in Eberswalde, Brandenburg, Germany

Now
45 °F

Clear.


Feels Like: 40 °F
Forecast: 43 / 66 °F
Wind: 8 mph from West

Location: Berlin-Tegel

Current Time: May 31, 2015 at 1:40:13 AM

Latest Report: May 31, 2015 at 1:20 AM


Visibility: 10 mi

Pressure: 30.01 "Hg

Humidity: 76%

Dew point: 37 °F

Location of EberswaldeLocation

Historic Weather in Eberswalde — Graph

°F

Eberswalde temperature yesterday

Maximum temperature yesterday: 63 °F (at 2:20 PM)
Minimum temperature yesterday: 46 °F (at 11:20 PM)
Average temperature yesterday: 55 °F

Past Weeks' High & Low Weather Summary

 TemperatureHumidityPressure
High73 °F (May 25, 2:20 PM)100% (May 16, 6:20 AM)30.30 "Hg (May 16, 6:20 AM)
Low39 °F (May 16, 4:20 AM)18% (May 24, 5:50 PM)29.56 "Hg (May 19, 3:50 AM)
Average56 °F60%30.00 "Hg
* Reported May 16 12:20 AM — May 31 12:20 AM, Eberswalde, Weather by CustomWeather, © 2015

Note: Actual official high and low records may vary slightly from our data, if they occured in-between our weather recording intervals... More about our weather records

Advertising

Eberswalde weather history for previous 24 hours

 ConditionsComfort  
Time TempWeatherWind HumidityBarometerVisibility
12:20 AM
Sun, May 31
46 °FClear.9 mph76%30.01 "Hg10 mi
11:20 PM
Sat, May 30
46 °FClear.8 mph71%30.01 "Hg10 mi
10:50 PM48 °FClear.9 mph66%30.01 "Hg10 mi
10:20 PM50 °FClear.13 mph67%29.98 "Hg10 mi
9:50 PM52 °FPassing clouds.10 mph62%29.98 "HgN/A
9:20 PM52 °FPassing clouds.12 mph62%29.98 "HgN/A
8:50 PM54 °FPassing clouds.12 mph58%29.95 "HgN/A
8:20 PM54 °FPassing clouds.13 mph58%29.95 "HgN/A
7:50 PM55 °FPassing clouds.16 mph55%29.95 "HgN/A
7:20 PM55 °FScattered clouds.16 mph59%29.95 "HgN/A
6:50 PM55 °FScattered clouds.16 mph59%29.92 "HgN/A
6:20 PM55 °FPassing clouds.16 mph59%29.92 "HgN/A
5:50 PM55 °FPassing clouds.14 mph67%29.92 "HgN/A
5:20 PM54 °FScattered clouds.8 mph77%29.92 "HgN/A
4:50 PM50 °FSprinkles. Scattered clouds.14 mph82%29.92 "HgN/A
4:20 PM59 °FSprinkles. Scattered clouds.15 mph42%29.89 "HgN/A
3:50 PM61 °FScattered clouds.14 mph39%29.86 "HgN/A
3:20 PM61 °FSprinkles. Scattered clouds.14 mph39%29.86 "HgN/A
2:50 PM61 °FScattered showers. Scattered clouds.21 mph31%29.86 "HgN/A
2:20 PM63 °FScattered clouds.17 mph34%29.86 "HgN/A
1:50 PM61 °FScattered clouds.18 mph36%29.86 "HgN/A
1:20 PM61 °FScattered clouds.18 mph45%29.83 "HgN/A
12:50 PM59 °FSprinkles. Scattered clouds.20 mph42%29.86 "HgN/A
12:20 PM59 °FPartly sunny.20 mph48%29.86 "HgN/A
11:50 AM57 °FPartly sunny.15 mph51%29.83 "HgN/A
11:20 AM57 °FPartly sunny.22 mph51%29.83 "HgN/A
10:50 AM55 °FPartly sunny.20 mph55%29.83 "HgN/A
10:20 AM54 °FPartly sunny.17 mph67%29.83 "HgN/A
9:50 AM52 °FPartly sunny.18 mph67%29.83 "HgN/A
9:20 AM52 °FScattered clouds.15 mph77%29.80 "HgN/A
8:50 AM50 °FBroken clouds.14 mph88%29.80 "HgN/A
8:20 AM50 °FBroken clouds.12 mph88%29.80 "HgN/A
7:50 AM48 °FBroken clouds.12 mph94%29.77 "HgN/A
7:20 AM48 °FLight rain. Broken clouds.12 mph94%29.77 "HgN/A
6:50 AM48 °FLight rain. Cloudy.13 mph94%29.77 "HgN/A
6:20 AM50 °FLight rain. Partly sunny.14 mph82%29.77 "Hg4 mi
5:50 AM52 °FLight rain. Passing clouds.13 mph72%29.74 "HgN/A
5:20 AM55 °FSprinkles. Partly cloudy.22 mph67%29.74 "HgN/A
4:50 AM57 °FLight rain. Clear.10 mph67%29.71 "HgN/A
4:20 AM57 °FClear.10 mph67%29.71 "Hg10 mi
3:50 AM57 °FClear.12 mph67%29.71 "Hg10 mi
3:20 AM57 °FClear.10 mph67%29.71 "Hg10 mi
2:50 AM57 °FClear.10 mph67%29.71 "Hg10 mi
2:20 AM57 °FClear.7 mph67%29.71 "Hg10 mi
1:50 AM59 °FPassing clouds.8 mph63%29.71 "HgN/A
1:20 AM59 °FClear.6 mph63%29.71 "Hg10 mi
Weather by CustomWeather, © 2015

See weather overviewHow to use our weather pages